Voltar ao catálogo

NUSAT-49

K.VON NEUMANN

AtivoCiênciaSSO
NORAD 60500·PAYLOAD·🇦🇷 Argentina

Lançado Aug 16, 2024 de Vandenberg Space Force Base

Loading…

Próximas Passagens (próximas 24 horas)

TLE

AtualizadoSource: Space-Track

Época: Sep 13, 2026, 18:00 UTC

1 60500U 24149AJ  26256.75032637  .00005978  00000-0  20875-3 0  9999
2 60500  97.3734 337.4094 0002132  36.1097 324.0287 15.29959207115675

Acompanhe NUSAT-49 em tempo real com AllMySat

Download on the App Store